Regional Weather Roundup
Issued by NWS

Home | Current Version | Previous Version | Text Only | Print | Product List | Glossary Off
Versions: 1 2 3 4 5 6 7 8 9 10 11 12 13 14 15 16 17 18 19 20 21 22 23 24 25 26 27 28 29 30 31 32 33 34 35 36 37 38 39 40 41 42 43 44 45 46 47 48 49 50

345
ASUS43 KDMX 231106
RWRIA

WEATHER ROUNDUP FOR IOWA
NATIONAL WEATHER SERVICE DES MOINES IA
500 AM CST MON JAN 23 2017

NOTE: "FAIR" INDICATES FEW OR NO CLOUDS BELOW 12,000 FEET WITH NO
SIGNIFICANT WEATHER AND/OR OBSTRUCTIONS TO VISIBILITY.

* - THESE STATIONS ARE NOT NWS STATIONS...THUS NOT UNDER NWS
QUALITY CONTROL.  THEY ALSO DO NOT REPORT WEATHER SUCH
AS PRECIPITATION OR FOG.

IAZ001>003-012>014-020>022-031>034-043>046-231200-
   NORTHWEST IOWA

CITY           SKY/WX    TMP DP  RH WIND       PRES   REMARKS
CARROLL *      CLOUDY    32  32 100 NW10G17   29.87R WCI  24
CHEROKEE *     CLOUDY    32  30  92 NW3       29.87S
DENISON *      CLOUDY    32  28  86 NW7G14    29.86F WCI  26
LE MARS *      CLOUDY    32  28  86 NW7       29.89S WCI  26
ORANGE CITY *  CLOUDY    30  28  93 N6        29.86R WCI  24
SHELDON *      CLOUDY    32  32 100 NW9       29.84S WCI  24
SIOUX CITY     CLOUDY    33  29  85 N8        29.88F WCI  26
SPENCER          N/A    N/A N/A N/A MISG      29.84F
STORM LAKE *   CLOUDY    30  28  93 NW9       29.86R WCI  22
$$

IAZ055>058-069>071-079>083-090>094-231200-
   SOUTHWEST IOWA

CITY           SKY/WX    TMP DP  RH WIND       PRES   REMARKS
ATLANTIC *     CLOUDY    32  30  93 NW8       29.88F WCI  25
AUDUBON *      CLOUDY    30  27  86 NW8       29.88S WCI  23
CLARINDA *     CLOUDY    32  30  93 NW7G15    29.91F WCI  26
COUNCIL BLFS * CLOUDY    32  30  93 N7G14     29.88F WCI  26
CRESTON *      CLOUDY    30  30 100 NW8G16    29.87S WCI  23
HARLAN  *      CLOUDY    32  32 100 NW13      29.91F WCI  22
LAMONI         CLOUDY    32  29  88 NW15      29.86R WCI  22
RED OAK *      CLOUDY    32  30  93 N12       29.90F WCI  23
SHENANDOAH *   CLOUDY    32  30  93 N7        29.91F WCI  26
$$

IAZ047>049-059>061-072>074-084-231200-
   CENTRAL IOWA

CITY           SKY/WX    TMP DP  RH WIND       PRES   REMARKS
AMES           CLOUDY    32  31  96 NW7       29.85F WCI  26
ANKENY *       CLOUDY    32  30  93 NW7G13    29.86F WCI  26
BOONE *        CLOUDY    32  32 100 NW8       29.83F FOG     WCI  25
CHARITON *     CLOUDY    32  30  93 NW8G14    29.84F FOG     WCI  25
DES MOINES     CLOUDY    33  30  88 NW10      29.86S WCI  25
GRINNELL*      CLOUDY    32  32  99 W10       29.84R FOG     WCI  24
KNOXVILLE *    CLOUDY    32  30  93 NW10      29.83S FOG     WCI  24
MARSHALLTOWN   CLOUDY    32  32 100 NW13      29.83S FOG     WCI  22
NEWTON *       CLOUDY    32  32 100 NW14      29.84R FOG     WCI  22
PELLA *        CLOUDY    32  32  99 NW8G16    29.86R FOG     WCI  25
PERRY *        CLOUDY    32  31  96 NW9       29.86S FOG     WCI  24
$$

IAZ004>006-015-016-023>025-035-036-231200-
   NORTH CENTRAL IOWA

CITY           SKY/WX    TMP DP  RH WIND       PRES   REMARKS
ALGONA *       CLOUDY    32  30  93 N7        29.84F WCI  26
CLARION *      CLOUDY    32  32 100 NW9G15    29.85F WCI  24
ESTHERVILLE    CLOUDY    31  29  92 NW9       29.83F WCI  23
FORT DODGE *   CLOUDY    32  27  80 NW5       29.85F WCI  27
MASON CITY     CLOUDY    31  29  92 W14       29.84S WCI  21
FOREST CITY *  CLOUDY    32  32 100 NW9       29.84S WCI  24
WEBSTER CITY * MIX PCPN  32 N/A N/A NW9       29.83F WCI  24
IOWA FALLS *   CLOUDY    33  31  94 NW8       29.84F WCI  25
$$

IAZ007>011-017>019-026>030-037>042-050>054-066-231200-
   NORTHEAST IOWA

CITY           SKY/WX    TMP DP  RH WIND       PRES   REMARKS
CEDAR RAPIDS   CLOUDY    34  33  96 NW9       29.79F FOG     WCI  27
CHARLES CITY * CLOUDY    32  32 100 NW9       29.82S FOG     WCI  24
CLINTON *      CLOUDY    35  34  96 NW7       29.78S FOG     WCI  29
DECORAH *      CLOUDY    34  32  93 NW3       29.78F
DUBUQUE        CLOUDY    35  34  96 NW8       29.77S WCI  29
MONTICELLO *   CLOUDY    36  34  93 NW8       29.78F WCI  29
OELWEIN *      CLOUDY    32  32 100 NW12      29.80S FOG     WCI  23
WATERLOO       CLOUDY    33  31  92 NW8       29.82R FOG     WCI  26
$$

IAZ064-065-067-068-078-231200-
   EAST CENTRAL IOWA

CITY           SKY/WX    TMP DP  RH WIND       PRES   REMARKS
DAVENPORT      CLOUDY    35  33  92 NW7       29.78S WCI  29
IOWA CITY      CLOUDY    37  34  89 NW8       29.82S WCI  31
MUSCATINE *    CLOUDY    37  34  87 NW10      29.81S WCI  30
QUAD CITIES    CLOUDY    37  33  85 NW8       29.78S WCI  31
$$

IAZ062-063-075>077-085>089-095>099-231200-
   SOUTHEAST IOWA

CITY           SKY/WX    TMP DP  RH WIND       PRES   REMARKS
BURLINGTON     CLOUDY    37  35  92 NW8       29.78F WCI  31
FAIRFIELD *    CLOUDY    36  36 100 NW8       29.81S WCI  29
FORT MADISON * CLOUDY    37  36  93 NW9       29.81R WCI  31
KEOKUK *       CLOUDY    37 N/A N/A NW8G15    29.79F WCI  31
OSKALOOSA *    CLOUDY    34  33  98 NW12      29.83R FOG     WCI  25
CENTERVILLE *  CLOUDY    32  32 100 W8        29.85R WCI  25
OTTUMWA        CLOUDY    36  33  89 NW10      29.81S WCI  28
WASHINGTON *   CLOUDY    36  36 100 NW12      29.82S FOG     WCI  27
$$

ABBREVIATIONS USED IN REMARKS
   TC - TEMPERATURES IN CELSIUS
  WCI - WIND CHILL INDEX
   HX - HEAT INDEX
  VSB - VISIBILITY
$$





USA.gov is the U.S. government's official web portal to all federal, state and local government web resources and services.